STARLINK-1807, 46706

Orbit data source: Space-Track

STARLINK-1807, 46706 is a payload satellite owned by SpaceX/Seattle (US) in LEO that was launched on Sun, 18 Oct 2020 UTC via an FALCON 9 launch vehicle from the Air Force Eastern Test Range (AFETR). Payload-class satellites include a variety of spacecraft equipped with specific instruments for various scientific and technological missions. These include communications satellites like Starlink; space stations such as the ISS; scientific satellites like the Hubble; Earth observation satellites from companies like Planet Labs, Umbra, and HawkEye 360; GPS; miniature CubeSats for education and research; and military/defense satellites.

Loading next visibility...
Identifier
46706, 2020-073AN
Orbit
LEO
Country
Flag of USUS
Related business
Manufacturer
SpaceX/Seattle
Mission
Partially operational Commercial Communications
Bus & Motor
STARLINK, Unknown motor
Mass
260 kg wet, ~248 kg dry
Launch date (UTC)
2020-10-18 (6 years ago)
Launch vehicle
FALCON 9
Launch site
Air Force Eastern Test Range (AFETR)
Object type
Payload
Rocket body
Debris
Shape & HBR
Box + 1 Pan, 10.1 m
Radar Cross Section
13.562 m², Large (>1 m²)

Expand to show TLE details & history
Last TLE update: 1 day ago

TLE from 1 day ago
0 STARLINK-1807
1 46706U 20073AN  26171.21595256  .00029729  00000-0  96279-3 0  9992
2 46706  53.0572 112.7143 0004298  78.3526 281.7956 15.31798258312991
Epoch: 2026-06-20T05:10Z
TLE epoch observation values (Epoch: 2026-06-20T05:10:58.301Z)
Latitude
-0.00003°
Longitude
126.53759°
Altitude
470.736 km
Speed
7.632 km/s
True Right ascension
07h 30m 51s
True Declination
0° 00' 00"
Sunlit
Object was in daylight at epoch
Visualization orbit readout
Latitude
Unknown
Longitude
Unknown
Altitude
Unknown
Speed
Unknown
Apparent Right ascension
Unknown
Apparent Declination
Unknown
Sunlit
N/A
Visualization observer readout
Local Sidereal Time
21:48:37
Azimuth
Unknown
Elevation
Unknown
Doppler factor
Unknown
Orbital elements
Apogee altitude
473.664 km
Perigee altitude
467.777 km
Semi-major axis
6,848.857 km
Eccentricity
0.00043
Inclination
53.0572°
RAAN
112.7143°
Arg. of periapsis
78.3526°
True anomaly
281.74738°
Mean anomaly
281.7956°
Eccentric anomaly
281.77149°
Mean motion
3.82927 °/min
Orbital period
94.01 mins
BSTAR
0.00096279
Loading maneuver chart data...
Computing Atmospheric mass density...
Loading historical data...
Loading historical data...
Loading historical data...
Loading historical data...
Loading historical data...
Loading historical data...
Loading historical data...

Documentation

Showing up to 5 results
|